Theta_e
349 348 346 346 347 350 350 350 349 351 352 352 352 350 348 347 347 351 350 345 346 348 348 346 352 352 353 352 351 346 345 348 348 348 348 349 351 349 348 345 347 352 351
348 349 342 349 346 348 349 350 349 349 351 352 352 351 351 349 351 352 348 348 349 352 353 353 350 353 352 352 352 347 345 348 349 349 348 346 351 347 344 346 349 348 350
348 349 348 348 348 348 347 348 346 349 352 351 353 352 352 349 348 346 344 345 350 351 352 353 353 353 353 352 351 345 348 349 349 344 348 350 348 348 346 347 346 345 348
349 349 347 348 348 347 347 346 347 348 347 349 349 351 352 348 348 351 345 344 353 353 353 354 353 353 353 351 345 344 346 346 349 342 346 346 346 341 339 343 347 346 348
349 350 345 346 347 348 346 347 347 348 348 347 347 347 347 350 350 346 347 352 353 353 354 353 352 351 351 348 345 346 346 346 347 350 348 345 344 342 339 341 345 342 343
344 347 344 345 346 346 346 347 345 347 346 348 348 348 346 348 346 342 350 352 353 353 351 351 350 347 347 346 345 344 345 346 352 351 351 348 346 338 333 339 345 341 340
347 345 344 345 342 345 346 345 345 346 342 344 345 347 345 344 343 347 353 354 353 352 349 345 342 343 343 343 343 344 344 346 353 352 351 351 348 336 338 341 342 341 338
348 348 347 342 342 343 344 346 346 342 342 342 345 342 345 345 346 353 352 352 352 351 346 343 340 340 341 341 342 343 344 344 350 350 349 352 344 341 331 335 340 340 339
348 349 348 346 342 343 344 345 342 343 343 343 339 344 343 347 350 353 352 354 352 351 349 344 342 341 340 337 341 343 344 343 350 349 345 351 345 340 333 333 341 341 342
346 347 347 347 345 341 342 345 345 343 345 342 343 346 350 353 354 354 350 352 353 351 346 344 342 342 338 338 340 342 341 345 348 343 342 349 345 343 341 339 341 340 342
347 347 347 347 343 342 344 344 345 343 340 343 345 346 350 352 351 348 350 350 352 345 343 343 341 339 338 341 340 339 338 348 349 344 343 340 344 343 343 342 346 342 342
346 346 347 346 344 341 341 341 339 336 340 344 348 345 350 350 350 347 348 348 344 341 340 340 339 337 341 345 347 343 348 350 350 349 346 340 344 344 349 348 346 344 344
345 346 346 346 343 341 339 340 337 336 336 342 348 346 349 349 346 345 346 346 346 340 345 344 350 350 350 351 350 349 349 350 351 351 347 339 339 345 350 348 346 344 345
343 344 344 345 345 345 341 338 337 342 340 346 342 348 347 347 347 345 345 345 344 343 348 351 350 353 354 352 349 349 349 347 349 350 349 339 338 341 347 350 350 345 343
342 343 343 344 345 345 344 341 342 344 345 343 346 348 346 344 344 343 344 345 346 348 349 352 352 353 352 350 349 350 349 348 350 348 349 339 341 344 343 344 344 342 341
341 342 343 344 344 344 343 342 345 344 345 345 346 346 350 347 349 346 347 345 348 347 350 352 354 354 351 348 348 347 349 348 351 349 348 350 342 341 342 339 337 337 340
342 343 343 344 343 342 342 343 345 344 343 346 345 349 351 351 352 349 348 346 349 350 352 355 352 353 352 351 349 347 348 349 349 350 349 348 347 341 340 337 337 337 339
343 341 341 339 342 340 339 344 342 344 345 346 346 348 352 352 351 350 348 347 350 355 353 352 350 350 353 353 351 348 349 350 348 349 349 349 347 347 340 338 338 339 339
344 341 337 339 342 341 342 340 344 347 347 347 347 347 351 350 350 349 346 349 354 353 353 352 352 353 352 350 348 349 349 349 349 348 352 350 348 347 348 338 338 340 341
343 342 340 340 340 340 337 345 340 344 347 347 347 346 349 349 348 348 349 350 353 351 350 351 353 351 352 351 348 348 347 348 348 349 351 350 351 350 348 351 348 347 341
341 343 342 339 337 340 341 344 342 340 345 347 347 349 350 348 345 349 350 351 351 352 353 353 351 349 346 348 350 348 349 351 353 352 350 349 351 350 351 351 351 350 349
338 340 341 341 341 342 343 345 346 344 347 346 347 349 349 349 347 350 353 352 353 350 353 353 352 348 347 350 352 349 348 351 350 349 351 351 351 351 352 351 352 351 350
341 339 339 341 341 341 345 348 348 349 350 348 349 348 348 349 348 351 353 352 352 351 350 352 351 352 348 349 356 353 356 351 349 349 351 351 353 353 352 353 353 351 350
343 343 340 340 340 341 343 344 347 346 346 346 347 347 349 350 349 350 351 353 354 349 350 349 349 352 354 348 352 353 354 354 350 353 351 352 352 352 352 353 353 353 354
344 344 344 343 342 341 342 344 347 348 346 347 346 350 349 352 352 351 352 353 353 351 351 352 352 353 352 351 350 351 353 351 353 349 347 353 353 352 353 354 354 352 354
344 345 346 346 346 345 345 346 348 346 347 346 347 348 348 348 350 352 352 354 353 353 353 352 354 352 354 353 352 351 351 350 348 348 349 351 348 353 353 353 353 353 352
Wind_Speed
12 14 14 12 12 12 14 14 14 13 14 13 14 14 13 12 12 12 11 11 10 11 12 12 12 11 11 10 9 9 10 10 10 11 10 11 10 10 8 7 8 11 12
17 14 16 12 13 12 11 12 14 14 13 14 12 12 11 10 11 11 12 11 11 13 13 13 13 12 12 11 11 10 10 10 9 8 9 9 9 8 9 6 4 9 12
16 15 15 13 12 13 11 11 10 12 12 12 10 10 10 10 10 12 12 12 10 12 13 12 12 11 12 12 10 10 9 9 7 7 8 8 8 7 8 6 3 6 7
13 12 13 12 11 12 11 12 11 9 10 10 10 10 11 12 11 12 13 12 12 11 13 12 11 11 10 10 10 9 8 8 6 8 5 7 8 9 9 4 3 4 7
12 10 12 9 10 10 9 10 9 10 10 11 11 10 11 11 13 12 12 11 12 12 13 12 10 9 10 10 9 8 5 6 4 7 4 6 7 6 7 4 2 0 3
14 10 11 9 7 7 8 8 8 8 7 9 10 10 10 12 14 12 12 12 12 12 11 11 10 9 9 7 6 4 3 3 4 2 1 8 5 7 4 4 3 3 4
14 11 14 9 10 6 3 3 4 6 6 8 8 9 11 13 15 13 13 13 12 11 11 9 9 7 6 4 3 2 2 3 3 2 4 4 9 10 4 6 7 3 5
13 14 12 12 9 8 7 4 7 5 5 9 11 11 12 13 14 13 13 12 11 10 9 8 7 4 3 3 2 1 2 4 4 4 5 3 8 10 3 12 6 4 5
12 11 12 12 12 10 10 5 7 7 6 10 11 12 14 14 13 12 12 11 9 8 6 5 4 2 1 1 1 1 3 5 3 4 4 2 7 10 5 7 5 6 6
9 9 9 9 8 8 9 9 10 9 10 10 11 13 13 13 13 12 11 9 7 6 5 3 2 0 1 2 1 2 4 6 3 4 3 3 6 9 4 2 10 5 6
10 9 8 7 8 9 13 17 13 10 15 10 10 12 12 11 11 11 9 8 6 5 3 2 1 0 1 3 5 5 5 5 6 4 3 2 7 7 6 3 4 7 7
10 9 8 8 9 11 12 15 14 15 13 9 7 10 10 10 9 9 8 8 6 4 2 1 0 1 2 3 3 5 4 7 6 4 1 1 7 7 8 5 5 5 6
9 10 9 10 10 12 15 14 19 16 16 4 6 10 8 8 8 8 6 5 4 3 2 2 2 1 2 4 4 4 6 5 4 2 3 1 3 3 7 6 5 4 6
9 10 11 12 12 12 15 15 20 10 9 6 7 7 8 8 6 6 5 4 4 3 1 1 1 2 3 2 2 4 4 4 2 0 1 3 6 5 4 5 4 3 4
10 10 12 13 12 14 16 17 15 11 10 6 7 7 7 6 5 5 5 4 3 2 1 1 3 2 4 3 4 3 4 4 3 3 3 3 4 5 2 2 4 4 5
9 13 12 12 12 14 16 17 12 12 9 8 7 6 5 5 5 6 5 4 1 2 0 3 5 4 4 3 4 3 3 3 3 4 5 2 1 3 3 4 6 6 6
11 14 13 11 10 12 13 13 10 11 10 9 7 5 4 5 6 7 5 3 3 2 2 2 4 2 3 4 4 3 2 1 2 3 2 5 5 5 6 5 6 6 6
12 13 12 11 10 12 13 10 10 10 10 9 8 7 5 6 7 7 6 4 3 1 1 2 3 3 4 4 5 4 3 2 1 4 2 5 5 7 6 5 6 5 4
13 13 16 11 12 12 11 7 9 8 9 9 9 7 7 5 6 6 6 5 3 2 1 1 2 4 6 6 5 4 3 2 3 6 5 6 6 6 6 5 5 4 3
15 16 16 14 12 11 12 7 9 7 7 9 8 7 6 6 6 7 6 6 4 3 1 2 4 6 5 7 10 5 4 2 2 4 6 5 6 6 5 5 3 4 3
16 17 17 14 13 16 14 12 9 9 8 8 7 7 7 6 9 8 7 7 5 3 1 2 5 4 7 6 9 4 3 2 3 5 7 4 6 5 4 4 4 3 4
19 19 19 17 17 17 14 13 9 10 8 8 7 8 8 7 9 8 6 6 5 4 1 2 4 8 3 4 7 8 3 8 6 7 6 5 5 5 4 5 4 4 3
21 21 20 19 18 17 13 11 10 9 6 8 9 8 8 9 9 9 7 4 5 4 3 1 2 3 6 3 3 6 3 2 5 5 4 3 3 4 4 4 5 4 5
23 22 21 19 19 17 15 11 10 10 9 9 9 8 9 10 10 9 7 7 6 6 5 4 3 3 3 4 1 2 5 5 3 4 6 3 3 4 4 4 6 5 5
24 24 23 22 20 19 18 16 14 14 11 7 10 7 9 11 10 9 7 8 8 7 7 6 4 4 3 3 2 2 4 1 1 6 2 11 5 2 3 4 4 4 6
25 24 23 23 23 22 20 19 17 15 14 11 11 11 11 13 13 11 9 9 9 7 7 7 6 6 5 4 4 5 4 4 3 4 3 2 4 4 2 4 5 4 6
Wind_Direction
147 152 144 139 135 133 134 132 128 133 135 130 125 125 117 115 111 105 106 105 108 108 118 118 113 114 115 113 113 110 109 101 96 102 109 104 103 105 118 123 139 138 135
147 150 149 145 141 130 130 134 133 136 140 135 132 127 122 119 107 108 103 105 105 105 117 113 111 110 114 115 115 115 114 108 103 112 108 99 93 97 96 109 136 142 146
149 150 152 150 144 138 139 134 137 143 144 145 143 141 135 122 117 108 110 109 111 112 119 119 112 112 114 115 115 109 113 110 97 89 100 138 94 85 85 90 86 127 151
140 151 153 154 151 147 151 144 152 148 149 149 148 150 143 142 128 119 124 125 120 121 117 112 111 113 112 111 114 114 117 108 101 79 60 69 85 79 62 74 95 130 156
132 147 155 155 163 158 163 157 163 160 164 164 163 151 147 138 136 124 122 126 125 125 119 115 114 113 110 109 109 109 108 93 80 72 73 92 83 86 65 74 356 66 170
147 154 148 156 150 167 173 175 176 171 167 172 158 156 140 135 135 132 137 130 124 122 119 116 119 120 112 108 110 107 86 59 83 62 312 139 150 18 60 326 328 226 210
153 146 148 141 148 145 152 175 184 173 162 186 168 151 144 141 143 144 144 134 129 128 127 129 124 122 121 120 117 102 53 33 19 358 336 287 138 125 336 322 308 260 231
150 149 146 169 163 153 150 153 132 125 199 173 151 140 148 146 148 147 140 133 138 136 129 125 122 127 144 147 133 91 17 15 344 347 347 352 161 153 228 247 267 275 239
143 147 151 148 149 149 135 128 175 152 159 150 145 148 145 146 146 140 135 139 137 135 132 119 116 134 165 193 156 352 349 335 329 342 342 157 185 166 66 215 214 231 226
156 157 157 157 145 154 141 132 141 147 140 128 147 140 137 139 141 143 149 143 148 149 146 134 128 129 271 255 267 301 308 340 324 15 19 66 218 215 188 336 203 218 223
157 162 166 165 161 138 137 141 133 149 135 125 129 135 132 139 139 152 161 154 161 163 164 154 132 144 276 336 309 294 319 303 316 325 357 284 201 241 236 190 176 223 220
166 164 161 153 142 157 167 155 154 157 163 131 119 138 141 142 156 156 169 168 169 170 170 131 102 318 338 299 289 321 302 314 304 300 330 57 180 216 225 228 224 212 209
174 166 164 158 155 149 152 165 171 172 170 183 145 142 150 151 157 162 162 165 167 175 166 57 346 305 319 313 315 310 310 308 303 287 242 112 121 160 184 204 189 197 187
187 178 170 159 157 162 162 167 164 179 185 173 163 146 154 165 169 158 164 161 172 166 139 72 354 339 330 317 307 319 322 334 343 352 186 156 129 137 186 179 164 164 175
194 182 184 161 156 155 160 171 175 175 177 164 155 162 154 158 161 153 154 151 177 190 124 3 338 347 339 327 337 322 338 15 94 72 112 161 136 114 155 177 135 134 144
196 178 188 154 151 157 161 161 172 171 165 161 157 158 165 162 162 153 154 146 180 180 177 341 328 319 335 352 5 21 19 60 111 96 91 129 150 146 140 136 121 127 133
180 163 157 146 148 152 161 166 167 172 165 160 164 169 168 163 161 157 159 150 151 181 28 336 340 311 333 353 9 15 18 53 115 121 84 91 104 114 135 124 122 126 134
157 167 153 157 157 158 169 169 177 174 167 168 170 168 157 154 156 159 167 154 171 114 92 54 24 353 346 346 356 342 340 331 243 191 128 109 104 116 114 136 135 139 137
168 167 175 169 171 166 171 186 183 178 181 182 181 175 171 169 171 163 169 160 156 155 120 4 1 352 339 346 329 344 347 129 137 136 134 131 123 111 122 155 166 160 167
171 176 182 180 176 178 175 185 198 198 198 196 189 187 185 187 176 166 164 159 155 178 181 7 341 344 329 340 338 29 58 114 159 156 149 148 140 129 127 147 159 197 233
169 178 184 187 191 175 184 185 204 207 205 197 195 189 189 179 158 163 161 155 155 169 49 335 320 307 319 342 289 143 106 114 144 167 159 144 153 158 155 153 175 189 187
176 183 187 190 186 189 188 184 189 207 201 192 193 183 181 182 176 169 165 167 172 170 127 8 348 319 307 346 344 288 198 163 114 122 136 155 143 154 163 189 188 200 182
186 187 193 194 196 194 190 183 190 196 193 186 190 194 197 193 193 184 181 182 186 198 207 273 310 325 324 309 343 314 285 69 164 157 173 163 171 185 186 195 200 193 186
192 193 193 196 198 199 202 204 205 206 201 201 200 192 182 192 200 206 199 204 210 232 225 229 252 284 286 303 347 338 334 353 347 130 149 148 204 206 193 189 197 202 191
191 191 193 195 202 204 204 209 209 216 208 214 223 186 201 193 202 209 207 209 217 242 223 222 222 234 228 260 276 276 255 275 329 323 240 158 175 129 180 206 194 201 195
195 192 190 192 200 202 204 209 212 215 216 220 216 211 207 203 207 213 215 220 222 235 232 234 234 226 218 225 253 247 280 293 347 298 275 228 327 123 253 206 206 210 206